Tracking 19192 objects as of 21-Jun-2018
HD Live streaming from Space Station
objects crossing your sky now

COSMOS 2251 DEB

Track COSMOS 2251 DEB now!
10-day predictions


NORAD ID: 34131
Int'l Code: 1993-036LC
Perigee: 695.0 km
Apogee: 701.3 km
Inclination: 74.1 °
Period: 98.6 minutes
Semi major axis: 7069 km
RCS: 0.018 m2 (small)
Launch date: June 16, 1993
Source: Commonwealth of Independent States (former USSR) (CIS)
Launch site: PLESETSK MISSILE AND SPACE COMPLEX (PKMTR)

Note: This is SATELLITE DEBRIS
aabbcc
Your satellite tracking list
Your tracking list is empty




NASA's NSSDC Master Catalog

Two Line Element Set (TLE):
1 34131U 93036LC  18171.72876535 +.00001573 +00000-0 +32876-3 0  9999
2 34131 074.1194 157.9426 0004427 078.2420 335.7914 14.60671988493383
Source of the keplerian elements: AFSPC